WZZ5965 LHBP-EDDS

Flight info

Callsign WZZ5965
Flight time 1h 9m
Altitude 32000
Route GILEP DCT ZOLKU DCT ARSIN DCT BARUG DCT MATIG DCT TITIG L173 MAH/N0398F240 L173 DODIL T127 TEKSI TEKSI1W
Aircraft A21N/M-SDE2E3FGHIRWXY/LB1

Departure

Time 2026-05-04 05:55
Airport Budapest Liszt Ferenc International Airport (LHBP)

Arrival

Time 2026-05-04 07:04
Airport Stuttgart Airport (EDDS)
Time Latitude Longitude Altitude Speed Heading
2026-05-04 04:58 47.43622 19.25916 462 ft 0 kts 312°
2026-05-04 05:47 47.43583 19.25942 458 ft 4 kts 20°
2026-05-04 05:47 47.43561 19.25922 460 ft 4 kts 42°
2026-05-04 05:47 47.43557 19.25917 461 ft 0 kts 42°
2026-05-04 05:51 47.43564 19.25925 461 ft 0 kts 42°
2026-05-04 05:52 47.43578 19.25945 460 ft 5 kts 42°
2026-05-04 05:52 47.43612 19.25990 462 ft 8 kts 42°
2026-05-04 05:52 47.43657 19.26046 462 ft 10 kts 24°
2026-05-04 05:52 47.43718 19.25999 463 ft 12 kts 313°
2026-05-04 05:53 47.43795 19.25987 463 ft 13 kts 42°
2026-05-04 05:54 47.42827 19.28527 701 ft 160 kts 133°
2026-05-04 05:55 47.42087 19.29730 1510 ft 156 kts 136°
2026-05-04 05:55 47.41374 19.30957 2226 ft 162 kts 132°
2026-05-04 05:55 47.40799 19.32487 2822 ft 179 kts 116°
2026-05-04 05:55 47.40357 19.34275 3449 ft 191 kts 119°
2026-05-04 05:56 47.39703 19.36051 4044 ft 204 kts 125°
2026-05-04 05:56 47.38969 19.37949 4637 ft 223 kts 124°
2026-05-04 05:56 47.38148 19.40082 5011 ft 253 kts 123°
2026-05-04 05:56 47.37041 19.42113 5778 ft 256 kts 147°
2026-05-04 05:57 47.35374 19.42900 6566 ft 261 kts 181°
2026-05-04 05:57 47.33528 19.42503 7412 ft 266 kts 191°
2026-05-04 05:57 47.31826 19.41457 8137 ft 279 kts 217°
2026-05-04 05:57 47.30618 19.39193 8977 ft 284 kts 243°
2026-05-04 05:58 47.30111 19.36373 9834 ft 290 kts 268°
2026-05-04 05:58 47.30365 19.33368 10403 ft 306 kts 283°
2026-05-04 05:58 47.30897 19.30214 10744 ft 328 kts 284°
2026-05-04 05:58 47.31468 19.26835 11049 ft 350 kts 284°
2026-05-04 05:59 47.32045 19.23254 11417 ft 367 kts 283°
2026-05-04 05:59 47.32618 19.19536 12102 ft 374 kts 283°
2026-05-04 05:59 47.33192 19.15760 12888 ft 379 kts 283°
2026-05-04 05:59 47.33765 19.11949 13682 ft 383 kts 283°
2026-05-04 06:00 47.34341 19.08143 14404 ft 387 kts 283°
2026-05-04 06:00 47.34927 19.04250 15126 ft 390 kts 283°
2026-05-04 06:00 47.35515 19.00326 15844 ft 394 kts 283°
2026-05-04 06:00 47.36107 18.96364 16588 ft 396 kts 283°
2026-05-04 06:01 47.36694 18.92377 17333 ft 399 kts 283°
2026-05-04 06:01 47.37282 18.88367 18049 ft 402 kts 283°
2026-05-04 06:03 47.41557 18.59319 22261 ft 424 kts 285°
2026-05-04 06:03 47.42382 18.55115 22827 ft 427 kts 288°
2026-05-04 06:05 47.48445 18.25148 26201 ft 444 kts 286°
2026-05-04 06:05 47.49930 18.16240 27191 ft 446 kts 285°
2026-05-04 06:05 47.50661 18.11799 27865 ft 442 kts 285°
2026-05-04 06:06 47.51386 18.07387 28466 ft 440 kts 285°
2026-05-04 06:06 47.52107 18.02991 29048 ft 438 kts 285°
2026-05-04 06:06 47.52813 17.98670 29599 ft 437 kts 285°
2026-05-04 06:06 47.53527 17.94301 30131 ft 436 kts 285°
2026-05-04 06:07 47.54234 17.89951 30595 ft 434 kts 285°
2026-05-04 06:07 47.54940 17.85609 31031 ft 433 kts 285°
2026-05-04 06:07 47.55575 17.81267 31434 ft 433 kts 280°
2026-05-04 06:07 47.55800 17.76815 31850 ft 433 kts 274°
2026-05-04 06:08 47.55857 17.72356 32102 ft 433 kts 272°
2026-05-04 06:08 47.55935 17.63488 32137 ft 432 kts 273°
2026-05-04 06:09 47.56038 17.54602 32112 ft 432 kts 273°
2026-05-04 06:11 47.56406 17.19054 33555 ft 431 kts 272°
2026-05-04 06:11 47.56444 17.14677 33855 ft 431 kts 272°
2026-05-04 06:13 47.56654 16.83568 35703 ft 428 kts 271°
2026-05-04 06:14 47.60837 16.58291 36067 ft 425 kts 290°
2026-05-04 06:14 47.61839 16.54163 36066 ft 425 kts 289°
2026-05-04 06:15 47.63823 16.45934 36062 ft 425 kts 289°
2026-05-04 06:15 47.64817 16.41792 36203 ft 426 kts 289°
2026-05-04 06:15 47.65809 16.37648 36444 ft 426 kts 289°
2026-05-04 06:16 47.66797 16.33512 36628 ft 426 kts 289°
2026-05-04 06:16 47.67783 16.29376 36802 ft 425 kts 289°
2026-05-04 06:16 47.68770 16.25235 37024 ft 424 kts 289°
2026-05-04 06:16 47.69751 16.21114 37235 ft 423 kts 289°
2026-05-04 06:17 47.70716 16.17046 37435 ft 423 kts 289°
2026-05-04 06:17 47.71691 16.12921 37580 ft 423 kts 289°
2026-05-04 06:17 47.72662 16.08798 37718 ft 423 kts 289°
2026-05-04 06:17 47.73634 16.04667 37866 ft 424 kts 289°
2026-05-04 06:18 47.74606 16.00533 38033 ft 424 kts 289°
2026-05-04 06:18 47.75575 15.96404 38069 ft 423 kts 289°
2026-05-04 06:20 47.83278 15.63341 38041 ft 423 kts 288°
2026-05-04 06:21 47.88048 15.42675 38030 ft 423 kts 288°
2026-05-04 06:22 47.89783 15.34304 38035 ft 421 kts 280°
2026-05-04 06:25 47.95483 14.74026 38036 ft 419 kts 277°
2026-05-04 06:26 47.96269 14.65416 38030 ft 419 kts 277°
2026-05-04 06:26 47.97047 14.56782 38029 ft 419 kts 277°
2026-05-04 06:27 47.98975 14.35290 38041 ft 418 kts 277°
2026-05-04 06:28 47.99734 14.26742 38040 ft 418 kts 276°
2026-05-04 06:28 48.00484 14.18141 38040 ft 418 kts 276°
2026-05-04 06:29 48.01228 14.09534 38046 ft 418 kts 276°
2026-05-04 06:29 48.01963 14.00919 38030 ft 418 kts 276°
2026-05-04 06:30 48.02697 13.92290 38031 ft 418 kts 276°
2026-05-04 06:30 48.03421 13.83666 38038 ft 418 kts 276°
2026-05-04 06:31 48.04138 13.75081 38034 ft 418 kts 276°
2026-05-04 06:31 48.04849 13.66455 38039 ft 419 kts 275°
2026-05-04 06:33 48.05928 13.31732 38047 ft 418 kts 269°
2026-05-04 06:34 48.05943 13.23040 38048 ft 418 kts 269°
2026-05-04 06:34 48.05955 13.14353 38050 ft 418 kts 268°
2026-05-04 06:36 48.05940 12.81085 38058 ft 418 kts 268°
2026-05-04 06:37 48.05920 12.72405 38051 ft 416 kts 268°
2026-05-04 06:37 48.06697 12.63980 38048 ft 414 kts 287°
2026-05-04 06:38 48.08822 12.55864 38065 ft 422 kts 289°
2026-05-04 06:40 48.17206 12.23015 38045 ft 413 kts 288°
2026-05-04 06:40 48.19249 12.14887 38052 ft 420 kts 288°
2026-05-04 06:41 48.21304 12.06696 38054 ft 423 kts 288°
2026-05-04 06:41 48.23386 11.98376 38055 ft 423 kts 288°
2026-05-04 06:42 48.25434 11.90152 38052 ft 423 kts 288°
2026-05-04 06:44 48.33569 11.57020 33003 ft 417 kts 288°
2026-05-04 06:44 48.34568 11.52922 32304 ft 416 kts 288°
2026-05-04 06:44 48.35562 11.48845 31593 ft 416 kts 288°
2026-05-04 06:45 48.36557 11.44755 30881 ft 416 kts 288°
2026-05-04 06:45 48.37548 11.40672 30181 ft 415 kts 288°
2026-05-04 06:45 48.38537 11.36591 29364 ft 415 kts 288°
2026-05-04 06:45 48.39540 11.32437 28714 ft 430 kts 288°
2026-05-04 06:46 48.40558 11.28217 28026 ft 428 kts 288°
2026-05-04 06:46 48.41569 11.24016 27350 ft 424 kts 288°
2026-05-04 06:46 48.42556 11.19901 26651 ft 421 kts 288°
2026-05-04 06:46 48.43548 11.15765 25972 ft 418 kts 288°
2026-05-04 06:48 48.50294 10.87512 21158 ft 399 kts 288°
2026-05-04 06:48 48.51226 10.83577 20518 ft 396 kts 288°
2026-05-04 06:49 48.52145 10.79691 19902 ft 392 kts 288°
2026-05-04 06:50 48.58388 10.53063 15916 ft 379 kts 287°
2026-05-04 06:51 48.59261 10.49308 15399 ft 378 kts 287°
2026-05-04 06:51 48.60130 10.45569 14895 ft 376 kts 287°
2026-05-04 06:51 48.60996 10.41838 14384 ft 375 kts 286°
2026-05-04 06:51 48.61856 10.38112 13846 ft 375 kts 286°
2026-05-04 06:52 48.62709 10.34410 13257 ft 369 kts 286°
2026-05-04 06:52 48.63547 10.30774 12720 ft 361 kts 286°
2026-05-04 06:52 48.64366 10.27218 12205 ft 353 kts 287°
2026-05-04 06:52 48.65155 10.23788 11689 ft 347 kts 287°
2026-05-04 06:53 48.65944 10.20350 11227 ft 342 kts 287°
2026-05-04 06:53 48.66711 10.17008 10972 ft 328 kts 287°
2026-05-04 06:53 48.67443 10.13811 10774 ft 315 kts 287°
2026-05-04 06:53 48.68141 10.10752 10579 ft 301 kts 287°
2026-05-04 06:54 48.68793 10.07811 10386 ft 289 kts 283°
2026-05-04 06:54 48.69016 10.04845 9972 ft 282 kts 266°
2026-05-04 06:54 48.68892 10.01880 9399 ft 283 kts 263°
2026-05-04 06:54 48.68734 9.98905 8933 ft 282 kts 263°
2026-05-04 06:55 48.68583 9.95957 8486 ft 280 kts 264°
2026-05-04 06:55 48.68439 9.93025 8055 ft 277 kts 264°
2026-05-04 06:55 48.68300 9.90130 7692 ft 274 kts 264°
2026-05-04 06:55 48.68165 9.87264 7313 ft 271 kts 264°
2026-05-04 06:56 48.68032 9.84415 6944 ft 272 kts 264°
2026-05-04 06:57 48.67656 9.65006 4379 ft 265 kts 292°
2026-05-04 06:58 48.68493 9.62549 4109 ft 259 kts 297°
2026-05-04 06:58 48.69343 9.60213 3962 ft 247 kts 296°
2026-05-04 06:58 48.70128 9.58041 3941 ft 229 kts 296°
2026-05-04 06:58 48.70873 9.55979 3953 ft 222 kts 296°
2026-05-04 06:59 48.71614 9.53895 4062 ft 222 kts 295°
2026-05-04 06:59 48.72342 9.51828 4050 ft 222 kts 295°
2026-05-04 06:59 48.73060 9.49784 4010 ft 222 kts 295°
2026-05-04 06:59 48.73584 9.47604 3983 ft 220 kts 275°
2026-05-04 07:01 48.71627 9.36102 2785 ft 131 kts 252°
2026-05-04 07:01 48.71373 9.34781 2631 ft 133 kts 252°
2026-05-04 07:02 48.71121 9.33429 2448 ft 133 kts 253°
2026-05-04 07:02 48.70862 9.32083 2259 ft 134 kts 252°
2026-05-04 07:02 48.70595 9.30705 2084 ft 137 kts 253°
2026-05-04 07:02 48.70334 9.29296 1897 ft 141 kts 253°
2026-05-04 07:03 48.70067 9.27856 1692 ft 142 kts 253°
2026-05-04 07:03 48.69793 9.26431 1517 ft 140 kts 252°
2026-05-04 07:03 48.69520 9.25012 1335 ft 139 kts 253°
2026-05-04 07:03 48.69255 9.23618 1214 ft 132 kts 253°
2026-05-04 07:04 48.69043 9.22488 1233 ft 91 kts 253°
2026-05-04 07:04 48.68900 9.21731 1257 ft 60 kts 253°
2026-05-04 07:04 48.68800 9.21200 1268 ft 50 kts 254°
2026-05-04 07:04 48.68703 9.20701 1275 ft 37 kts 253°
2026-05-04 07:05 48.68673 9.20380 1281 ft 32 kts 277°
2026-05-04 07:05 48.68724 9.20078 1293 ft 20 kts 298°
2026-05-04 07:05 48.68808 9.19931 1302 ft 20 kts 315°
2026-05-04 07:05 48.68884 9.19864 1308 ft 14 kts 316°
2026-05-04 07:06 48.68955 9.19782 1315 ft 3 kts 342°
2026-05-04 07:06 48.68964 9.19778 1315 ft 0 kts 343°